BME280 SENSOR DATA

Go to past 24-hours Chart
ID Date / Time Temperature °C Humidity % Pressure
3427 2022-08-14 05:50:30 12.32 62.70 993.70
3426 2022-08-14 05:20:30 12.50 62.83 993.53
3425 2022-08-14 04:50:30 12.35 59.87 992.90
3424 2022-08-14 04:20:30 11.96 59.88 992.72
3423 2022-08-14 03:50:29 11.72 61.84 992.66
3422 2022-08-14 03:20:29 11.77 62.07 992.85
3421 2022-08-14 02:50:29 11.84 61.89 992.71
3420 2022-08-14 02:20:29 12.15 61.00 992.44
3419 2022-08-14 01:50:28 12.00 63.02 992.43
3418 2022-08-14 01:20:28 11.85 61.98 992.28
3417 2022-08-14 00:50:28 11.80 62.80 992.08
3416 2022-08-14 00:20:28 12.09 65.62 991.89
3415 2022-08-13 23:50:28 12.65 69.75 991.85
3414 2022-08-13 23:20:27 12.61 68.53 992.23
3413 2022-08-13 22:50:27 12.71 67.33 992.06
3412 2022-08-13 22:20:27 12.52 71.17 991.81
3411 2022-08-13 21:50:27 12.63 69.69 991.33
3410 2022-08-13 21:20:27 13.00 67.72 991.23
3409 2022-08-13 20:50:26 12.96 66.46 991.34
3408 2022-08-13 20:20:26 13.04 66.24 990.80
3407 2022-08-13 19:50:26 13.43 66.17 990.41
3406 2022-08-13 19:20:26 13.92 64.03 989.65
3405 2022-08-13 18:50:26 14.58 52.99 989.08
3404 2022-08-13 18:20:25 14.91 48.19 988.47
3403 2022-08-13 17:50:25 15.14 47.41 988.53
3402 2022-08-13 17:20:25 15.69 44.34 988.43
3401 2022-08-13 16:50:24 15.94 45.14 988.28
3400 2022-08-13 16:20:24 16.26 40.97 988.65
3399 2022-08-13 15:50:24 16.45 44.37 988.96
3398 2022-08-13 15:20:24 16.49 44.94 989.06
3397 2022-08-13 14:50:23 15.90 43.35 989.67
3396 2022-08-13 14:20:23 16.49 40.92 989.82
3395 2022-08-13 13:50:23 15.73 45.23 990.17
3394 2022-08-13 13:20:23 16.16 50.87 990.55
3393 2022-08-13 12:50:23 16.13 56.63 991.08
3392 2022-08-13 12:20:22 16.25 56.21 991.71
3391 2022-08-13 11:50:22 15.84 58.87 992.30
3390 2022-08-13 11:20:22 15.72 61.81 992.79
3389 2022-08-13 10:50:22 15.31 64.44 993.22
3388 2022-08-13 10:20:22 14.58 66.15 993.58
3387 2022-08-13 09:50:21 14.18 64.77 993.91
3386 2022-08-13 09:20:21 13.79 62.78 994.00
3385 2022-08-13 08:50:21 12.67 65.45 994.25
3384 2022-08-13 08:20:21 10.49 68.17 994.16
3383 2022-08-13 07:50:21 8.75 73.41 994.25
3382 2022-08-13 07:20:20 8.87 73.17 994.18
3381 2022-08-13 06:50:20 8.79 70.01 994.19
3380 2022-08-13 06:20:20 8.77 71.19 994.13
3379 2022-08-13 05:50:20 8.95 72.28 994.30
3378 2022-08-13 05:20:20 9.72 71.82 994.30
3377 2022-08-13 04:50:19 10.11 73.23 994.20
3376 2022-08-13 04:20:19 10.43 73.19 994.35
3375 2022-08-13 03:50:19 10.35 75.04 994.68
3374 2022-08-13 03:20:19 10.66 73.98 995.11
3373 2022-08-13 02:50:18 11.21 72.57 995.00
3372 2022-08-13 02:20:18 11.69 74.30 995.20
3371 2022-08-13 01:50:18 11.92 74.21 995.71
3370 2022-08-13 01:20:18 11.88 74.89 995.78
3369 2022-08-13 00:50:18 11.84 75.58 995.77
3368 2022-08-13 00:20:17 12.57 73.69 995.95
3367 2022-08-12 23:50:17 12.73 74.45 995.90
3366 2022-08-12 23:20:17 12.80 75.01 996.17
3365 2022-08-12 22:50:17 12.87 75.34 996.35
3364 2022-08-12 22:20:17 12.81 75.20 996.36
3363 2022-08-12 21:50:16 12.85 73.99 996.45
3362 2022-08-12 21:20:16 13.07 74.11 996.45
3361 2022-08-12 20:50:16 13.33 74.81 996.46
3360 2022-08-12 20:20:16 13.70 72.82 996.64
3359 2022-08-12 19:50:16 14.09 74.77 996.63
3358 2022-08-12 19:20:15 14.22 74.18 996.47
3357 2022-08-12 18:50:15 14.38 74.54 996.18
3356 2022-08-12 18:20:15 14.41 72.59 995.58
3355 2022-08-12 17:50:15 14.87 70.42 995.48
3354 2022-08-12 17:20:15 15.11 70.84 995.47
3353 2022-08-12 16:50:14 14.95 72.48 995.66
3352 2022-08-12 16:20:14 15.01 71.25 995.27
3351 2022-08-12 15:50:14 14.63 71.74 995.02
3350 2022-08-12 15:20:14 14.83 71.65 994.87
3349 2022-08-12 14:50:14 15.14 69.27 994.94
3348 2022-08-12 14:20:13 14.99 71.13 995.09
3347 2022-08-12 13:50:13 15.28 69.28 995.08
3346 2022-08-12 13:20:13 15.30 70.23 995.22
3345 2022-08-12 12:50:13 15.48 72.13 995.51
3344 2022-08-12 12:20:13 16.32 66.69 995.38
3343 2022-08-12 11:50:12 16.22 67.83 995.82
3342 2022-08-12 11:20:12 16.05 70.21 995.53
3341 2022-08-12 10:50:11 15.84 71.27 995.65
3340 2022-08-12 10:20:11 15.47 71.14 995.17
3339 2022-08-12 09:50:10 15.39 70.79 994.84
3338 2022-08-12 09:20:10 14.73 73.10 994.55
3337 2022-08-12 08:50:10 14.89 72.64 994.39
3336 2022-08-12 08:20:09 14.71 72.07 994.27
3335 2022-08-12 07:50:09 14.68 71.16 994.14
3334 2022-08-12 07:20:08 13.66 73.38 993.54
3333 2022-08-12 06:50:08 13.86 72.89 993.61
3332 2022-08-12 06:20:08 14.57 71.00 993.81
3331 2022-08-12 05:50:08 14.92 67.87 993.28
3330 2022-08-12 05:20:06 16.10 55.10 992.32
3329 2022-08-12 04:50:06 16.09 54.72 991.75
3328 2022-08-12 04:20:05 15.95 53.95 991.64
3327 2022-08-12 03:50:05 15.99 51.68 991.14
3326 2022-08-12 03:20:05 15.39 53.28 990.92
3325 2022-08-12 02:50:05 15.80 52.77 991.23
3324 2022-08-12 02:20:05 15.45 52.31 991.00
3323 2022-08-12 01:50:04 15.84 52.92 991.04
3322 2022-08-12 01:20:04 16.13 55.00 991.10
3321 2022-08-12 00:50:04 16.01 57.72 991.12
3320 2022-08-12 00:20:04 16.47 56.32 990.68
3319 2022-08-11 23:50:04 16.47 54.56 990.87
3318 2022-08-11 23:20:03 16.88 56.74 991.89
3317 2022-08-11 22:50:03 16.74 55.17 991.85
3316 2022-08-11 22:20:03 16.97 56.08 991.74
3315 2022-08-11 21:50:03 16.97 57.78 991.77
3314 2022-08-11 21:20:02 17.37 58.72 991.94
3313 2022-08-11 20:50:02 16.84 57.80 991.05
3312 2022-08-11 20:20:01 17.26 55.55 991.44
3311 2022-08-11 19:50:01 17.95 54.75 991.39
3310 2022-08-11 19:20:00 17.82 55.53 991.50
3309 2022-08-11 18:50:00 18.15 54.07 991.57
3308 2022-08-11 18:20:00 18.58 51.69 991.81
3307 2022-08-11 17:50:00 18.73 47.82 991.50
3306 2022-08-11 17:20:00 18.87 42.62 991.51
3305 2022-08-11 16:49:59 19.34 40.27 991.57
3304 2022-08-11 16:19:59 19.58 40.89 991.51
3303 2022-08-11 15:49:59 19.63 42.20 991.29
3302 2022-08-11 15:19:59 20.49 37.99 991.04
3301 2022-08-11 14:49:58 20.53 36.97 991.49
3300 2022-08-11 14:19:58 20.76 40.90 991.67
3299 2022-08-11 13:49:58 20.70 43.13 991.93
3298 2022-08-11 13:19:58 20.04 46.55 992.26
3297 2022-08-11 12:49:58 19.70 50.56 992.97
3296 2022-08-11 12:19:58 19.32 55.56 993.46
3295 2022-08-11 11:49:57 18.92 56.32 993.89
3294 2022-08-11 11:19:57 18.77 59.36 994.31
3293 2022-08-11 10:49:57 17.97 60.70 995.18
3292 2022-08-11 10:19:56 16.96 65.83 995.97
3291 2022-08-11 09:49:56 15.88 67.27 996.21
3290 2022-08-11 09:19:56 15.69 66.63 996.20
3289 2022-08-11 08:49:56 14.80 67.65 995.93
3288 2022-08-11 08:19:56 13.73 68.26 996.52
3287 2022-08-11 07:49:55 13.24 69.31 996.50
3286 2022-08-11 07:19:55 12.92 71.00 996.23
3285 2022-08-11 06:49:55 12.78 69.92 995.93
3284 2022-08-11 06:19:55 12.96 69.62 996.23
3283 2022-08-11 05:49:55 13.59 70.01 995.97
3282 2022-08-11 05:19:54 13.73 69.91 996.02
3281 2022-08-11 04:49:54 13.79 68.99 996.13
3280 2022-08-11 04:19:54 13.73 70.33 995.97
3279 2022-08-11 03:49:54 13.93 69.77 996.13
3278 2022-08-11 03:19:54 14.05 68.57 996.16
3277 2022-08-11 02:49:52 14.12 68.21 996.62
3276 2022-08-11 02:19:52 14.27 68.47 996.93
3275 2022-08-11 01:49:52 14.09 67.47 996.65
3274 2022-08-11 01:19:51 14.23 67.33 996.80
3273 2022-08-11 00:49:51 14.52 67.79 997.03
3272 2022-08-11 00:19:51 14.89 66.26 997.27
3271 2022-08-10 23:49:51 14.81 66.66 997.04
3270 2022-08-10 23:19:51 14.97 65.91 996.95
3269 2022-08-10 22:49:50 15.80 64.22 997.18
3268 2022-08-10 22:19:50 16.03 64.29 997.02
3267 2022-08-10 21:49:50 16.22 63.09 997.20
3266 2022-08-10 21:19:50 17.08 62.17 997.70
3265 2022-08-10 20:49:49 17.31 61.06 997.68
3264 2022-08-10 20:19:49 17.71 60.56 997.14
3263 2022-08-10 19:49:48 18.14 59.67 996.42
3262 2022-08-10 19:19:48 18.58 58.66 996.86
3261 2022-08-10 18:49:48 18.64 57.95 996.52
3260 2022-08-10 18:19:48 18.34 58.31 996.48
3259 2022-08-10 17:49:47 19.20 55.75 996.28
3258 2022-08-10 17:19:46 19.55 53.98 996.13
3257 2022-08-10 16:49:46 19.79 52.64 995.45
3256 2022-08-10 16:19:46 20.41 50.42 995.27
3255 2022-08-10 15:49:46 20.62 49.94 995.37
3254 2022-08-10 15:19:45 20.67 49.25 995.44
3253 2022-08-10 14:49:45 20.99 48.87 995.47
3252 2022-08-10 14:19:45 21.09 48.98 995.74
3251 2022-08-10 13:49:45 20.56 48.04 995.92
3250 2022-08-10 13:19:45 20.66 47.37 995.92
3249 2022-08-10 12:49:44 20.22 48.14 996.76
3248 2022-08-10 12:19:44 20.35 47.38 997.01
3247 2022-08-10 11:49:44 20.06 47.77 997.01
3246 2022-08-10 11:19:44 19.86 48.53 996.92
3245 2022-08-10 10:49:44 19.71 49.48 997.74
3244 2022-08-10 10:19:43 18.76 51.11 997.80
3243 2022-08-10 09:49:43 18.84 50.48 997.68
3242 2022-08-10 09:19:43 18.95 49.50 997.73
3241 2022-08-10 08:49:43 18.49 50.23 998.02
3240 2022-08-10 08:19:42 16.51 53.77 997.75
3239 2022-08-10 07:49:42 16.26 54.73 997.01
3238 2022-08-10 07:19:42 15.25 57.28 997.10
3237 2022-08-10 06:49:42 15.55 55.00 997.18
3236 2022-08-10 06:19:42 15.85 52.89 996.43
3235 2022-08-10 05:49:41 15.94 53.03 995.99
3234 2022-08-10 05:19:41 16.20 51.97 995.77
3233 2022-08-10 04:49:41 16.38 49.93 995.89
3232 2022-08-10 04:19:41 15.99 51.49 995.03
3231 2022-08-10 03:49:40 16.35 49.05 995.24
3230 2022-08-10 03:19:40 16.23 54.42 994.73
3229 2022-08-10 02:49:40 16.66 51.68 994.39
3228 2022-08-10 02:19:40 16.93 47.59 994.32
3227 2022-08-10 01:49:39 16.92 51.05 994.56
3226 2022-08-10 01:19:38 17.61 46.36 994.56
3225 2022-08-10 00:49:38 17.70 48.42 993.72
3224 2022-08-10 00:19:38 18.02 47.02 993.72
3223 2022-08-09 23:49:38 18.09 49.59 993.85
3222 2022-08-09 23:19:38 18.42 46.92 993.62
3221 2022-08-09 22:49:37 18.76 43.34 993.14
3220 2022-08-09 22:19:37 19.47 41.19 993.71
3219 2022-08-09 21:49:36 19.34 40.76 993.70
3218 2022-08-09 21:19:36 19.64 38.88 993.20
3217 2022-08-09 20:49:34 19.76 38.08 993.16
3216 2022-08-09 20:19:34 20.05 38.96 992.94
3215 2022-08-09 19:49:33 20.16 40.43 992.65
3214 2022-08-09 19:19:33 20.50 39.08 992.14
3213 2022-08-09 18:49:33 20.77 40.66 991.75
3212 2022-08-09 18:19:32 21.11 42.62 991.83
3211 2022-08-09 17:49:32 21.41 42.22 991.11
3210 2022-08-09 17:19:32 21.56 38.56 991.05
3209 2022-08-09 16:49:32 22.52 35.12 991.53
3208 2022-08-09 16:19:31 22.86 33.51 990.92
3207 2022-08-09 15:49:31 23.35 30.89 990.62
3206 2022-08-09 15:19:31 23.34 32.31 990.67
3205 2022-08-09 14:49:31 23.18 34.36 990.86
3204 2022-08-09 14:19:31 22.83 35.57 991.17
3203 2022-08-09 13:49:30 22.36 40.33 991.72
3202 2022-08-09 13:19:30 22.09 45.18 992.41
3201 2022-08-09 12:49:30 21.23 44.11 993.15
3200 2022-08-09 12:19:30 20.94 50.99 993.69
3199 2022-08-09 11:49:30 20.30 58.21 993.77
3198 2022-08-09 11:19:27 19.89 62.65 994.35
3197 2022-08-09 10:49:27 19.22 65.75 994.78
3196 2022-08-09 10:19:27 18.63 67.36 994.68
3195 2022-08-09 09:49:27 17.60 68.91 995.12
3194 2022-08-09 09:19:27 17.48 67.36 995.81
3193 2022-08-09 08:49:26 16.01 70.24 995.65
3192 2022-08-09 08:19:26 14.89 70.98 995.74
3191 2022-08-09 07:49:26 12.99 75.77 995.42
3190 2022-08-09 07:19:26 12.59 74.09 995.68
3189 2022-08-09 06:49:25 12.68 72.54 995.35
3188 2022-08-09 06:19:25 13.09 75.58 995.25
3187 2022-08-09 05:49:25 13.27 75.05 994.99
3186 2022-08-09 05:19:25 13.05 74.29 995.18
3185 2022-08-09 04:49:25 13.70 74.06 995.30
3184 2022-08-09 04:19:25 13.81 74.63 995.48
3183 2022-08-09 03:49:24 13.95 73.30 995.53
3182 2022-08-09 03:19:24 13.76 72.64 995.94
3181 2022-08-09 02:49:23 14.30 74.10 995.63
3180 2022-08-09 02:19:23 14.25 73.08 995.87
3179 2022-08-09 01:49:22 14.57 72.49 996.32
3178 2022-08-09 01:19:22 15.03 73.81 996.39
3177 2022-08-09 00:49:22 15.41 73.50 996.58
3176 2022-08-09 00:19:22 15.84 73.63 996.94
3175 2022-08-08 23:49:21 15.96 73.39 997.14
3174 2022-08-08 23:19:21 15.52 71.63 997.74
3173 2022-08-08 22:49:21 15.87 70.08 997.91
3172 2022-08-08 22:19:21 16.51 69.82 997.93
3171 2022-08-08 21:49:21 16.83 69.49 998.25
3170 2022-08-08 21:19:19 17.26 68.86 998.74
3169 2022-08-08 20:49:17 17.02 67.15 998.92
3168 2022-08-08 20:19:16 17.17 68.44 998.86
3167 2022-08-08 19:49:16 17.54 66.14 998.91
3166 2022-08-08 19:19:15 17.96 64.84 998.76
3165 2022-08-08 18:49:15 18.48 63.31 998.65
3164 2022-08-08 18:19:15 19.28 61.30 998.29
3163 2022-08-08 17:49:15 19.96 59.81 997.97
3162 2022-08-08 17:19:15 20.40 58.09 997.82
3161 2022-08-08 16:49:14 20.63 56.99 997.73
3160 2022-08-08 16:19:14 20.79 56.40 998.05
3159 2022-08-08 15:49:14 20.83 55.10 998.25
3158 2022-08-08 15:19:14 20.97 53.34 998.41
3157 2022-08-08 14:49:14 20.72 53.36 998.44
3156 2022-08-08 14:19:13 20.42 54.04 998.84
3155 2022-08-08 13:49:13 20.06 55.11 999.23
3154 2022-08-08 13:19:13 19.89 56.38 999.66
3153 2022-08-08 12:49:13 19.72 57.35 1000.10
3152 2022-08-08 12:19:12 19.55 56.40 1000.57
3151 2022-08-08 11:49:11 19.57 56.75 1000.85
3150 2022-08-08 11:19:11 19.19 57.45 1001.15
3149 2022-08-08 10:19:07 18.62 59.28 1001.48
3148 2022-08-08 09:49:07 18.16 60.84 1001.83
3147 2022-08-08 09:19:07 17.74 62.28 1001.80
3146 2022-08-08 08:49:07 16.30 68.04 1001.38
3145 2022-08-08 08:19:06 15.39 71.74 1001.20
3144 2022-08-08 07:49:06 15.25 72.14 1000.85
3143 2022-08-08 07:19:06 14.69 73.80 1000.48
3142 2022-08-08 06:49:06 14.66 72.40 1000.15
3141 2022-08-08 06:19:06 14.53 72.73 999.75
3140 2022-08-08 05:49:05 14.59 73.03 999.32
3139 2022-08-08 05:19:05 14.90 73.21 998.76
3138 2022-08-08 04:49:05 15.24 74.24 998.61
3137 2022-08-08 04:19:05 15.36 74.38 998.98
3136 2022-08-08 03:49:04 15.45 73.97 999.14
3135 2022-08-08 03:19:04 15.38 72.47 999.08
3134 2022-08-08 02:49:04 15.39 71.81 998.96
3133 2022-08-08 02:19:04 15.64 72.27 999.16
3132 2022-08-08 01:49:04 15.73 72.36 999.29
3131 2022-08-08 01:19:03 15.54 72.94 999.02
3130 2022-08-08 00:49:03 15.21 73.20 998.68
3129 2022-08-08 00:19:03 15.35 72.49 998.43
3128 2022-08-07 23:49:03 15.32 71.59 998.10
3127 2022-08-07 23:19:03 15.59 72.03 998.09
3126 2022-08-07 22:49:02 16.45 70.73 998.29
3125 2022-08-07 22:19:02 16.54 70.59 998.27
3124 2022-08-07 21:49:02 16.88 69.96 998.02
3123 2022-08-07 21:19:02 16.95 70.17 997.42
3122 2022-08-07 20:49:01 16.94 70.68 996.92
3121 2022-08-07 20:19:01 17.06 69.80 996.38
3120 2022-08-07 19:49:00 17.02 69.60 996.15
3119 2022-08-07 19:19:00 17.57 65.02 995.66
3118 2022-08-07 18:49:00 17.51 59.38 995.01
3117 2022-08-07 18:19:00 17.71 58.99 993.99
3116 2022-08-07 17:48:59 17.97 59.20 993.31
3115 2022-08-07 17:18:59 18.11 57.04 992.60
3114 2022-08-07 16:48:59 18.61 55.45 992.45
3113 2022-08-07 16:18:59 18.64 54.81 992.11
3112 2022-08-07 15:48:58 18.88 54.21 991.97
3111 2022-08-07 15:18:58 18.82 53.83 991.73
3110 2022-08-07 14:48:58 19.05 53.32 991.44
3109 2022-08-07 14:18:58 18.62 55.99 990.98
3108 2022-08-07 13:48:57 18.87 55.25 990.76
3107 2022-08-07 13:18:57 18.18 54.68 990.64
3106 2022-08-07 12:48:57 18.07 56.07 990.71
3105 2022-08-07 12:18:57 18.10 57.47 990.87
3104 2022-08-07 11:48:57 17.83 59.67 991.50
3103 2022-08-07 11:18:56 17.15 62.21 991.90
3102 2022-08-07 10:48:56 17.02 63.20 992.00
3101 2022-08-07 10:18:56 16.55 65.27 991.99
3100 2022-08-07 09:48:56 15.92 67.16 991.98
3099 2022-08-07 09:18:56 15.82 68.52 992.40
3098 2022-08-07 08:48:55 15.45 69.16 992.43
3097 2022-08-07 08:18:54 13.76 73.42 992.59
3096 2022-08-07 07:48:54 11.71 76.56 992.57
3095 2022-08-07 07:18:54 11.32 75.79 992.68
3094 2022-08-07 06:48:53 11.83 76.40 992.87
3093 2022-08-07 06:18:53 11.94 76.46 993.02
3092 2022-08-07 05:48:53 12.25 77.89 993.12